Temp
81 79 77 77 76 75 73 72 71 72 72 72 72 72 71 70 70 69 70 71 70 69 70 69 69 70 70 71 71 71 70 68 63 65 70 69 67 63 65 67 66 63 63
80 78 77 76 74 72 71 72 72 71 72 72 73 72 72 71 70 70 70 71 70 69 69 69 69 70 67 68 69 67 69 68 64 61 67 68 65 63 66 64 63 61 61
79 78 75 74 72 70 70 71 72 72 72 72 72 71 71 71 71 71 72 71 70 70 69 69 68 67 64 64 64 65 67 67 69 66 65 67 66 67 65 63 61 57 63
79 77 73 72 71 71 70 70 71 71 70 70 71 71 72 72 72 72 72 71 70 70 69 69 69 66 62 61 61 63 64 64 66 66 65 63 63 64 62 59 56 57 60
77 75 72 71 71 71 70 70 70 70 70 71 70 70 70 68 65 62 70 70 69 69 70 70 70 63 60 59 60 60 60 62 63 62 61 57 58 56 53 56 54 56 60
75 73 72 72 71 69 69 69 69 69 69 70 70 69 67 64 47 49 55 69 69 68 67 67 67 65 63 56 55 55 56 59 59 56 54 52 54 55 56 53 52 51 51
73 73 73 72 70 69 70 69 67 67 68 67 67 67 65 61 45 46 49 69 68 67 66 64 65 67 58 56 56 55 60 53 52 56 54 55 54 56 54 53 53 53 54
73 73 73 72 70 70 69 67 66 67 65 65 64 65 64 57 45 45 47 63 69 68 67 64 62 61 52 50 57 64 63 59 63 64 61 59 61 60 57 58 57 55 60
72 72 72 72 70 69 67 66 67 66 65 64 65 64 64 59 44 44 50 70 69 69 69 60 60 58 43 43 58 60 61 63 61 57 52 50 48 47 49 57 54 53 51
73 72 72 71 70 68 67 66 67 66 67 68 65 65 53 61 42 44 48 71 67 69 69 55 46 49 43 42 55 58 57 58 59 61 63 63 58 62 53 60 57 51 52
72 72 69 70 68 68 67 67 65 67 64 64 63 64 62 59 54 44 45 64 63 67 68 66 63 45 43 42 42 58 55 52 58 65 65 63 67 67 67 65 59 54 51
71 68 68 67 69 68 66 65 66 63 61 61 61 64 66 62 49 45 45 46 49 63 63 63 60 45 44 43 49 44 45 50 66 66 65 61 61 63 65 66 64 59 57
66 65 67 67 67 67 65 65 65 65 65 63 64 65 67 69 65 47 47 47 49 61 63 55 47 45 45 53 45 45 50 62 63 62 62 63 64 64 65 64 65 64 62
65 64 65 64 65 67 69 69 69 63 65 66 65 63 65 65 61 60 63 63 56 60 59 62 58 52 47 52 61 61 63 62 61 61 62 64 66 66 65 66 60 61 60
64 64 64 64 66 64 58 56 62 52 50 60 58 62 56 61 52 44 46 55 55 54 48 65 63 62 62 62 63 62 62 61 61 62 61 62 63 64 64 66 63 59 55
63 64 65 66 66 64 61 56 40 42 40 40 40 49 55 43 41 41 40 40 40 41 60 61 60 59 60 60 60 60 60 58 60 61 61 61 61 62 62 64 64 61 55
65 63 66 65 66 64 63 61 54 47 41 40 39 40 39 39 41 42 42 43 42 46 60 60 58 58 58 58 59 59 58 59 60 61 60 60 61 62 61 62 62 60 59
65 54 66 67 67 67 67 64 63 58 56 54 42 45 39 40 40 41 41 43 60 58 60 58 57 57 57 57 57 58 58 58 59 59 59 60 60 60 60 60 61 58 58
64 65 67 67 67 65 67 66 62 58 58 56 53 46 44 40 42 44 45 61 59 58 59 58 57 57 56 57 57 58 58 58 57 58 58 59 59 60 59 60 60 47 51
64 51 60 67 65 67 67 66 61 58 58 58 59 59 60 52 59 59 60 59 58 58 58 58 57 56 56 56 56 57 58 57 56 57 57 58 58 59 59 59 59 59 58
63 61 43 68 67 67 67 66 63 58 58 56 57 52 35 61 61 59 59 57 56 56 56 57 58 57 56 55 55 55 55 55 55 55 56 57 58 57 59 59 59 59 58
65 63 64 66 67 65 65 65 63 59 57 56 57 53 38 60 60 59 58 57 57 57 57 56 57 56 56 55 54 53 52 51 51 52 54 56 58 57 58 58 58 58 57
66 65 65 66 65 54 63 65 62 60 58 58 59 58 59 59 59 59 58 57 57 56 57 56 55 54 54 53 53 52 49 46 48 51 52 56 56 54 57 56 56 56 55
66 65 65 65 64 63 64 62 61 53 59 59 60 59 58 59 58 56 57 57 57 56 56 55 54 53 51 51 51 51 46 42 46 49 49 56 55 53 55 56 55 56 55
64 65 65 63 61 63 62 58 61 61 59 58 57 59 60 59 58 57 57 57 56 56 54 54 54 52 50 47 46 45 36 32 39 34 49 54 54 53 53 55 54 55 54
60 62 61 60 60 60 58 57 58 58 58 56 58 59 59 59 58 56 56 56 55 55 54 54 52 51 50 47 42 34 33 32 37 33 39 54 53 53 52 52 52 53 53
MSLP
1009.30 1010.70 1011.92 1012.92 1013.81 1014.49 1014.97 1015.47 1015.99 1016.43 1016.45 1016.76 1016.91 1017.22 1017.38 1017.63 1017.67 1017.91 1017.73 1017.65 1017.70 1017.77 1018.02 1018.04 1018.02 1017.88 1017.68 1017.17 1016.88 1016.50 1015.92 1015.81 1015.17 1014.67 1013.42 1013.15 1012.97 1012.72 1012.03 1011.36 1010.70 1010.50 1009.71
1009.97 1011.13 1012.35 1013.35 1014.14 1014.82 1015.50 1016.14 1016.46 1016.75 1016.74 1017.03 1017.10 1017.34 1017.58 1017.84 1018.09 1018.05 1017.99 1017.97 1018.02 1018.04 1018.25 1018.26 1018.19 1018.14 1018.06 1017.74 1017.44 1016.83 1016.14 1015.97 1015.46 1014.46 1013.77 1013.39 1013.13 1012.66 1011.94 1011.63 1011.17 1010.91 1009.77
1010.26 1011.54 1012.78 1013.70 1014.68 1015.38 1016.00 1016.56 1016.70 1016.98 1017.10 1017.22 1017.44 1017.77 1017.95 1018.16 1018.40 1018.33 1018.23 1018.33 1018.40 1018.51 1018.65 1018.55 1018.52 1018.70 1018.75 1018.69 1018.37 1017.53 1016.81 1016.25 1015.17 1014.78 1014.05 1013.82 1013.31 1012.66 1012.12 1011.83 1011.44 1010.92 1009.51
1010.77 1012.04 1013.21 1014.13 1015.00 1015.84 1016.38 1016.69 1017.04 1017.38 1017.57 1017.77 1017.95 1018.15 1018.38 1018.67 1018.87 1018.70 1018.70 1018.78 1018.61 1018.68 1018.85 1018.80 1018.84 1019.15 1019.30 1019.23 1018.89 1018.23 1017.53 1016.77 1015.76 1015.12 1014.61 1014.38 1013.61 1013.25 1013.07 1012.38 1011.47 1010.93 1009.60
1011.25 1012.52 1013.67 1014.67 1015.45 1016.17 1016.61 1016.85 1017.57 1017.78 1018.05 1018.13 1018.32 1018.62 1019.17 1019.75 1020.54 1020.39 1019.53 1019.15 1018.93 1018.83 1019.00 1018.99 1018.99 1019.33 1019.57 1019.69 1019.51 1018.84 1018.18 1017.42 1016.74 1016.18 1015.45 1015.52 1014.77 1014.24 1013.72 1013.03 1012.24 1011.10 1009.93
1011.84 1012.99 1014.12 1014.90 1015.77 1016.29 1017.00 1017.32 1017.75 1018.13 1018.43 1018.46 1018.69 1019.10 1019.83 1020.89 1021.92 1021.55 1020.92 1019.68 1019.49 1019.29 1019.37 1019.48 1019.45 1019.40 1019.64 1019.78 1019.47 1018.92 1018.50 1018.02 1017.39 1017.17 1016.76 1016.15 1015.42 1014.86 1014.29 1013.55 1012.61 1011.54 1010.02
1012.24 1013.33 1014.14 1015.11 1015.81 1016.45 1017.09 1017.45 1018.10 1018.62 1018.88 1018.92 1019.15 1019.62 1020.51 1021.76 1022.43 1022.00 1021.57 1020.20 1019.79 1019.77 1019.89 1020.18 1020.21 1020.30 1020.62 1020.23 1019.36 1018.26 1017.34 1017.48 1017.74 1017.46 1016.93 1016.23 1015.67 1015.06 1014.57 1013.69 1013.03 1012.27 1010.94
1012.62 1013.49 1014.47 1015.18 1015.84 1016.60 1017.11 1017.86 1018.51 1018.89 1019.22 1019.55 1019.80 1020.07 1020.88 1022.39 1022.79 1022.37 1021.73 1020.88 1019.95 1019.81 1020.05 1020.68 1020.92 1020.97 1021.58 1021.05 1019.65 1017.93 1017.42 1017.31 1017.28 1016.83 1016.43 1015.98 1015.54 1015.19 1014.68 1013.63 1012.83 1012.45 1011.23
1013.01 1013.76 1014.63 1015.40 1016.11 1016.77 1017.47 1018.14 1018.61 1019.04 1019.43 1019.70 1020.01 1020.47 1021.01 1022.42 1022.98 1022.56 1021.94 1020.18 1019.97 1019.77 1020.05 1021.20 1021.45 1021.59 1022.16 1021.44 1019.85 1018.58 1017.81 1017.23 1017.01 1016.22 1015.97 1015.74 1015.45 1015.20 1014.77 1013.92 1013.01 1012.22 1011.61
1013.30 1014.11 1015.01 1015.79 1016.41 1017.05 1017.77 1018.35 1018.82 1019.22 1019.36 1019.60 1020.16 1020.85 1021.51 1022.34 1023.32 1022.83 1022.30 1020.60 1020.20 1019.95 1019.96 1021.53 1021.93 1022.32 1022.20 1021.61 1020.43 1019.22 1018.44 1017.78 1017.22 1016.07 1015.16 1014.78 1014.84 1014.16 1014.23 1013.71 1013.30 1012.87 1012.31
1013.80 1014.63 1015.68 1016.28 1016.86 1017.57 1018.28 1018.71 1019.35 1019.14 1019.76 1020.01 1020.44 1021.06 1021.73 1022.28 1023.20 1023.02 1022.71 1021.97 1021.64 1020.55 1020.47 1021.05 1021.64 1021.87 1021.90 1021.53 1020.68 1019.74 1018.96 1018.19 1017.08 1015.50 1014.99 1014.90 1014.33 1013.96 1013.67 1013.60 1013.54 1013.35 1012.95
1014.24 1015.20 1016.13 1016.82 1017.33 1018.10 1018.62 1019.01 1019.36 1019.82 1020.15 1020.46 1020.61 1020.64 1021.23 1022.19 1022.69 1023.09 1023.03 1022.88 1022.48 1021.48 1021.41 1021.98 1022.07 1021.82 1021.42 1021.18 1020.49 1019.65 1018.62 1017.74 1016.62 1015.91 1015.37 1015.23 1014.89 1014.29 1013.86 1013.48 1013.32 1013.33 1013.25
1014.76 1015.79 1016.63 1017.24 1017.91 1018.60 1018.87 1019.15 1019.53 1019.81 1019.91 1020.22 1020.20 1020.24 1020.65 1021.21 1022.18 1022.83 1022.92 1022.73 1022.24 1022.00 1021.96 1022.33 1021.93 1021.58 1020.92 1020.32 1020.01 1019.43 1018.62 1018.01 1017.22 1016.55 1016.07 1015.62 1015.01 1014.40 1013.68 1013.58 1013.24 1013.15 1012.77
1015.17 1016.24 1017.07 1017.61 1018.08 1018.47 1018.65 1018.85 1019.28 1020.27 1020.37 1020.35 1020.47 1020.85 1021.15 1021.85 1023.17 1023.50 1023.01 1022.75 1021.86 1022.05 1021.92 1021.58 1021.35 1021.08 1020.57 1020.18 1019.63 1019.26 1019.10 1018.51 1017.78 1017.17 1016.65 1016.15 1015.47 1014.63 1014.02 1013.55 1013.78 1013.52 1012.95
1015.74 1016.50 1017.24 1017.88 1018.15 1018.86 1020.42 1021.12 1021.23 1023.11 1023.14 1022.20 1022.35 1021.84 1022.78 1022.83 1024.73 1025.24 1024.95 1024.26 1023.93 1023.20 1023.00 1021.48 1021.20 1020.86 1020.42 1020.06 1019.80 1019.52 1019.26 1018.93 1018.29 1017.73 1017.20 1016.47 1015.73 1015.17 1014.61 1014.06 1013.91 1014.27 1013.89
1015.86 1016.56 1017.18 1017.70 1018.26 1019.25 1020.57 1022.22 1023.69 1024.03 1024.08 1024.09 1024.04 1023.82 1024.40 1024.97 1025.38 1025.35 1024.99 1024.63 1024.07 1023.38 1022.57 1021.97 1021.62 1021.29 1020.97 1020.64 1020.30 1019.98 1019.69 1019.57 1019.04 1018.33 1017.77 1017.19 1016.54 1015.82 1015.30 1014.58 1014.24 1014.14 1014.14
1015.70 1016.79 1017.32 1017.68 1018.13 1018.94 1019.92 1021.04 1022.78 1024.52 1024.74 1024.87 1024.95 1024.89 1025.09 1025.54 1025.42 1025.20 1024.98 1024.60 1023.91 1023.24 1022.66 1022.28 1022.15 1022.03 1021.73 1021.37 1021.01 1020.63 1020.33 1020.25 1019.65 1018.87 1018.33 1017.80 1017.25 1016.59 1015.93 1015.23 1014.89 1014.83 1014.21
1016.34 1017.16 1017.22 1017.47 1017.99 1018.46 1018.97 1019.99 1021.33 1022.55 1023.43 1024.65 1025.51 1025.34 1025.63 1025.49 1025.16 1024.89 1024.53 1024.27 1023.25 1023.46 1023.02 1022.84 1022.80 1022.73 1022.52 1022.17 1021.89 1021.34 1020.95 1020.71 1020.17 1019.52 1018.97 1018.44 1017.97 1017.24 1016.59 1016.02 1015.56 1015.40 1014.93
1016.59 1016.90 1016.99 1017.54 1017.86 1018.19 1018.74 1019.57 1021.04 1022.12 1022.73 1023.73 1024.88 1025.25 1025.50 1025.35 1025.04 1024.37 1024.04 1023.70 1023.56 1023.60 1023.50 1023.30 1023.45 1023.41 1023.22 1022.91 1022.61 1021.97 1021.57 1021.38 1021.01 1020.25 1019.67 1019.06 1018.68 1017.90 1017.32 1016.78 1016.31 1015.75 1015.58
1016.82 1017.33 1017.30 1017.42 1018.34 1018.43 1018.79 1019.32 1020.59 1021.68 1022.37 1022.89 1023.26 1023.60 1024.27 1024.91 1024.48 1024.24 1024.15 1024.16 1024.01 1024.09 1024.07 1023.72 1023.80 1023.97 1023.84 1023.61 1023.19 1022.60 1022.23 1021.94 1021.64 1021.09 1020.44 1019.83 1019.36 1018.63 1017.97 1017.38 1016.91 1016.32 1016.03
1017.15 1017.82 1018.20 1017.52 1018.04 1018.29 1018.73 1019.15 1020.23 1021.26 1021.74 1022.48 1022.98 1023.97 1024.50 1023.99 1023.80 1023.95 1024.19 1024.50 1024.69 1024.68 1024.68 1024.33 1024.19 1024.33 1024.28 1024.14 1023.86 1023.43 1023.22 1022.98 1022.61 1022.14 1021.36 1020.60 1019.92 1019.39 1018.64 1018.12 1017.55 1017.09 1016.60
1017.26 1017.75 1017.70 1017.67 1018.03 1018.68 1018.98 1019.22 1020.22 1021.08 1021.79 1022.45 1023.14 1024.35 1024.67 1024.10 1024.08 1024.04 1024.41 1024.62 1024.99 1025.26 1025.28 1025.08 1024.78 1024.95 1024.85 1024.82 1024.67 1024.54 1024.43 1024.28 1023.84 1023.23 1022.21 1021.29 1020.54 1020.25 1019.35 1018.76 1018.25 1017.85 1017.28
1017.22 1017.58 1017.68 1017.81 1018.47 1019.38 1019.46 1019.46 1020.30 1021.24 1021.75 1022.35 1023.05 1023.74 1023.86 1024.15 1024.34 1024.44 1024.59 1024.87 1025.16 1025.51 1025.73 1025.69 1025.62 1025.63 1025.79 1025.64 1025.69 1025.73 1025.86 1025.81 1025.22 1024.12 1023.29 1021.99 1021.23 1021.15 1020.18 1019.50 1019.09 1018.53 1018.16
1017.29 1017.54 1017.73 1018.03 1018.74 1019.36 1019.57 1019.89 1020.48 1021.11 1021.53 1022.23 1022.64 1023.23 1023.85 1024.17 1024.42 1024.97 1025.02 1025.20 1025.46 1025.73 1025.97 1026.09 1026.31 1026.48 1026.67 1026.68 1026.82 1026.73 1027.10 1027.06 1026.13 1025.19 1024.36 1022.58 1021.99 1021.72 1021.04 1020.25 1020.00 1019.25 1018.88
1017.68 1017.63 1017.81 1018.28 1019.08 1019.28 1019.96 1020.56 1020.76 1021.05 1021.69 1022.21 1022.85 1023.33 1023.72 1024.19 1024.52 1024.91 1025.29 1025.44 1025.67 1025.95 1026.35 1026.49 1026.67 1026.93 1027.29 1027.75 1027.89 1027.93 1028.00 1027.60 1026.89 1026.53 1024.96 1023.28 1022.84 1022.36 1022.00 1021.11 1020.80 1020.00 1019.66
1018.45 1018.29 1018.60 1019.22 1019.63 1020.06 1020.69 1020.90 1021.14 1021.43 1021.86 1022.56 1022.93 1023.26 1023.79 1024.20 1024.78 1025.13 1025.46 1025.66 1025.89 1026.17 1026.39 1026.84 1027.26 1027.56 1027.76 1028.28 1028.76 1028.70 1028.28 1027.77 1027.08 1026.35 1025.77 1023.87 1023.42 1022.93 1022.85 1022.11 1021.57 1020.89 1020.39
Wind_Speed
16 16 15 13 13 12 11 11 10 9 8 8 8 7 7 6 6 5 5 5 7 6 6 6 7 7 8 8 9 8 9 10 11 11 11 11 12 11 12 14 14 16 13
17 16 15 13 13 12 11 10 9 8 8 7 7 6 6 6 5 5 6 6 7 7 6 7 8 8 10 10 10 9 9 8 9 12 10 11 11 13 12 15 12 13 13
17 16 15 14 12 12 11 9 9 8 8 7 7 6 7 7 6 6 6 6 6 6 6 8 9 10 11 11 12 11 11 10 10 10 11 10 12 11 13 13 13 11 12
17 16 15 13 13 11 10 9 9 8 8 7 7 7 7 7 6 6 6 6 5 6 6 7 6 9 11 11 11 12 11 12 11 10 10 11 10 13 12 12 13 10 11
17 15 14 13 12 11 10 10 9 8 6 7 7 8 7 8 8 10 5 6 6 7 7 8 9 6 4 8 9 11 12 11 10 11 11 10 11 11 13 11 12 12 13
16 15 14 13 12 11 10 10 9 8 6 7 7 8 8 8 10 10 10 6 6 8 8 9 11 2 13 15 15 18 15 11 10 8 7 9 12 10 10 10 9 9 9
16 14 13 12 12 11 10 10 9 7 6 7 7 8 9 8 11 11 11 4 5 7 8 8 10 10 13 13 14 19 9 9 10 7 9 8 9 9 8 10 11 11 10
15 14 13 12 12 11 11 10 8 8 7 7 7 7 9 8 9 11 11 8 4 5 5 7 8 11 12 13 12 11 10 5 6 8 7 9 8 8 8 11 9 9 10
14 14 12 12 12 11 11 10 8 8 7 7 7 5 8 8 9 12 13 6 5 5 5 8 9 10 11 15 11 11 12 11 12 11 15 13 15 13 12 8 10 10 7
15 13 12 12 11 11 10 9 8 7 6 7 7 6 4 8 8 11 13 6 5 6 5 10 15 10 10 13 11 11 10 11 13 14 9 2 5 7 5 10 9 7 9
15 14 12 11 11 10 9 9 7 6 7 6 6 6 6 5 7 8 12 8 7 7 7 8 8 8 8 13 12 10 10 13 15 8 7 7 9 9 11 11 9 5 7
15 14 13 12 9 9 10 8 6 7 6 4 5 6 7 7 4 5 3 4 7 7 7 7 7 10 12 10 10 13 15 13 9 9 9 7 7 8 9 10 10 9 5
16 15 13 12 10 9 9 8 6 5 6 7 6 4 4 4 6 6 4 2 2 5 6 4 10 12 16 6 13 14 10 10 9 10 10 10 9 7 7 8 10 10 6
16 14 12 11 10 9 7 6 6 6 1 3 3 3 2 7 7 7 7 5 4 5 8 4 6 9 9 8 7 9 9 9 9 9 10 10 10 9 9 8 7 10 9
15 13 12 10 9 11 12 11 10 10 8 5 8 5 6 8 6 6 7 7 7 8 11 5 6 7 7 7 8 9 9 10 10 10 10 10 11 11 11 10 8 8 9
14 11 9 9 8 9 8 9 16 12 12 13 13 11 9 11 4 5 9 10 12 12 4 6 7 7 8 8 9 9 10 11 10 10 10 11 11 11 11 10 10 8 6
12 12 8 8 8 8 9 9 9 8 12 13 13 13 15 7 1 4 6 10 14 11 6 6 7 7 8 8 8 9 10 10 11 10 10 11 11 11 11 11 11 12 10
13 10 9 8 7 7 6 8 7 7 7 7 9 8 7 2 0 5 8 9 2 3 6 7 7 7 8 8 8 9 9 9 10 10 10 11 11 11 11 12 11 12 12
12 9 8 8 6 6 6 9 7 6 5 7 7 5 5 5 5 5 11 6 6 6 6 6 6 7 8 8 8 8 9 9 10 10 10 11 11 11 11 11 11 9 11
8 7 7 8 7 6 6 8 7 7 6 6 5 5 5 6 2 4 6 6 6 6 6 6 7 7 7 8 8 9 9 10 10 10 11 11 11 10 11 12 12 12 11
8 7 3 7 7 6 5 6 7 7 6 5 4 7 7 1 3 5 5 5 5 5 5 6 7 7 7 8 9 9 10 10 11 11 10 11 11 11 11 11 11 12 11
8 8 7 6 5 5 5 6 6 7 6 7 7 5 3 2 3 4 5 5 5 5 5 6 6 7 8 9 10 10 10 11 11 11 11 11 10 11 11 11 12 11 12
8 9 8 7 5 4 5 6 7 6 7 7 8 7 5 4 3 4 5 5 5 5 5 6 7 8 8 8 9 10 10 10 10 11 12 11 11 11 11 11 12 11 12
8 8 7 7 6 6 6 4 6 7 8 7 7 5 5 4 4 4 4 4 5 5 6 6 7 10 9 10 9 9 9 9 10 11 16 11 11 11 11 11 12 13 12
6 7 7 6 6 5 6 6 5 7 7 7 6 6 6 5 5 4 4 5 5 5 6 6 7 9 11 13 13 14 13 12 13 12 10 12 13 13 13 11 13 11 13
3 3 4 4 4 4 6 7 7 7 7 6 6 5 5 5 5 5 4 4 5 5 6 6 7 10 11 11 13 10 11 13 14 16 13 9 10 10 10 13 16 11 13
Wind_Direction
124 117 121 118 114 110 105 98 100 99 94 85 83 79 79 73 69 76 79 66 65 57 34 28 19 2 358 5 333 1 337 350 330 333 326 350 351 332 342 342 353 351 332
127 122 121 116 110 106 105 106 107 98 93 92 85 78 79 82 82 76 56 60 53 47 38 18 22 7 358 360 336 349 334 329 311 323 338 348 345 318 346 353 351 336 322
124 123 121 117 115 112 111 110 105 104 94 83 82 85 86 93 96 83 75 67 60 49 28 16 15 9 3 352 340 335 336 332 327 328 338 345 327 7 344 350 352 340 325
126 123 122 120 119 116 115 111 105 100 100 97 91 90 90 88 82 77 71 68 52 54 26 8 12 11 4 349 336 327 339 326 339 342 339 347 336 360 350 347 343 343 332
124 123 120 121 121 123 119 111 108 103 97 100 102 95 83 61 30 358 32 53 38 30 17 8 13 52 350 2 336 330 322 335 336 347 342 334 340 342 346 337 338 333 341
126 125 129 128 127 120 119 115 109 103 102 102 101 95 78 64 3 0 352 24 33 26 11 11 346 59 9 359 335 317 290 288 328 340 332 327 331 332 333 332 329 339 340
126 129 129 132 129 128 125 118 113 108 99 95 92 89 81 74 7 351 351 343 22 24 18 13 353 4 20 347 337 307 309 214 237 301 303 314 318 325 321 326 338 334 327
132 131 136 138 134 132 128 119 124 120 109 97 95 98 90 65 5 348 333 290 31 22 18 31 360 358 16 344 328 347 340 160 329 303 295 292 313 328 316 330 320 332 329
132 137 136 136 135 132 127 133 123 116 115 115 109 98 88 63 13 351 331 303 38 343 31 53 23 13 356 332 337 360 348 357 327 277 261 267 276 282 269 329 349 346 338
136 131 134 136 136 129 129 133 115 127 124 114 106 95 75 83 34 3 356 2 19 342 76 123 72 33 331 319 343 2 351 343 322 308 301 335 280 25 283 349 353 351 6
127 125 127 128 122 125 127 123 137 109 96 105 112 109 83 56 66 33 7 24 8 343 11 15 30 356 318 308 313 358 329 311 298 306 8 4 357 359 360 4 15 15 6
127 126 124 129 131 133 128 125 127 125 124 144 155 170 130 123 75 103 67 37 2 358 20 19 3 320 298 288 312 320 307 312 355 354 2 4 348 356 352 2 9 13 39
123 126 129 126 123 132 135 137 132 178 149 177 186 156 131 117 110 154 223 243 333 349 0 326 277 277 281 287 241 277 324 11 1 3 0 354 350 334 344 14 358 9 20
129 129 129 131 130 133 142 157 117 43 7 139 116 84 128 83 30 13 5 2 302 338 6 248 312 285 262 281 6 17 15 12 3 6 3 355 352 2 350 17 15 350 358
133 133 129 136 133 91 63 18 87 52 29 9 26 44 347 80 64 17 359 5 357 350 324 346 9 9 10 16 16 18 24 8 7 6 5 1 2 8 356 360 32 8 1
136 137 146 131 138 119 119 87 54 58 52 56 46 35 73 84 106 333 323 321 322 326 314 19 15 12 13 14 12 11 20 8 3 4 7 4 1 5 355 5 10 13 14
136 131 136 140 133 142 142 136 120 83 70 62 59 58 56 69 30 315 306 310 297 316 30 27 22 15 10 13 11 8 13 8 359 6 7 6 2 360 0 6 12 10 356
132 137 154 137 136 146 145 128 129 139 140 121 59 64 75 106 281 291 278 258 48 59 35 31 23 17 11 9 6 7 9 8 4 5 7 8 1 359 3 3 9 18 354
145 150 137 140 140 122 140 118 126 135 135 122 139 177 192 238 259 274 290 44 36 38 29 40 29 19 16 6 10 359 8 8 5 2 6 6 1 359 1 3 4 8 8
118 86 138 147 136 161 153 134 131 145 150 157 163 142 159 197 146 58 52 42 46 36 23 34 39 23 21 9 8 3 6 10 7 3 2 1 4 355 359 360 3 356 14
136 148 38 143 172 155 158 149 141 145 156 151 132 60 13 38 120 71 65 63 40 45 35 17 36 28 24 18 11 7 9 8 7 1 355 358 3 355 357 360 1 2 14
144 152 171 158 147 149 165 132 147 145 154 148 123 128 280 249 97 88 84 71 63 54 43 30 35 34 26 21 14 10 10 7 0 357 344 356 360 357 351 3 358 3 358
152 161 171 150 152 113 169 150 141 157 169 149 150 167 168 105 112 90 87 81 78 66 57 46 39 40 25 28 19 24 12 3 344 350 338 351 356 359 350 4 353 2 359
151 166 164 152 150 186 171 156 152 156 147 160 165 139 149 152 104 85 90 90 85 75 63 61 55 49 36 24 24 19 21 2 332 353 329 353 353 6 352 4 352 2 360
157 172 168 145 145 200 137 157 181 162 163 155 145 164 163 137 121 106 108 96 87 90 76 64 45 48 52 40 26 16 3 343 334 333 334 332 358 16 355 359 357 1 4
148 167 131 140 148 164 168 178 175 172 154 149 167 156 152 149 122 117 118 109 101 83 80 70 67 52 48 42 26 8 353 347 340 331 325 1 14 4 4 356 4 356 4